Retour au catalogue

DMSP 5D-2 F13 DEB

ActifSSO
NORAD 42319·DEBRIS·🇺🇸 United States

Lancé Mar 24, 1995 depuis Vandenberg Space Force Base

Loading…

Prochains Passages (prochaines 24 heures)

TLE

FraisSource: Space-Track

Époque: Sep 13, 2026, 09:04 UTC

1 42319U 95015JM  26256.37778018  .00004147  00000-0  13515-2 0  9994
2 42319  98.8772 306.1105 0024384  65.8392 294.5340 14.39072319590990

Suivez DMSP 5D-2 F13 DEB en temps réel avec AllMySat

Download on the App Store